Weather History for KGMJ - June, 2013

Change the Weather History Date:

Sunday, June 23, 2013

  Actual Average (KJLN) Record (KJLN)
Temperature  
Mean Temperature 85 °F 78 °F  
Max Temperature 93 °F 88 °F 98 °F (2009)
Min Temperature 77 °F 67 °F 52 °F (2004)
Degree Days  
Heating Degree Days 0 0  
Month to date heating degree days 2  
Since 1 June heating degree days 2  
Since 1 July heating degree days 4071  
Cooling Degree Days 20 13  
Month to date cooling degree days 225  
Year to date cooling degree days 405  
Since 1 June cooling degree days 225  
Growing Degree Days 35 (Base 50)    
Moisture  
Dew Point 70 °F    
Average Humidity 66    
Maximum Humidity 83    
Minimum Humidity 46    
Precipitation  
Precipitation 0.00 in 0.20 in 5.22 in (1976)
Month to date precipitation 4.65  
Year to date precipitation 22.60  
Sea Level Pressure  
Sea Level Pressure 29.96 in    
Wind  
Wind Speed 9 mph (SSE)    
Max Wind Speed 20 mph    
Max Gust Speed 25 mph    
Visibility 10 miles    
Events      
T = Trace of Precipitation, MM = Missing Value Source: NWS Daily Summary

Daily Weather History Graph

Daily Weather History Graph

Search for Another Location

Airport or City:

Trip Planner

Search our weather history database for the weather conditions in past years. The results will help you decide how hot, cold, wet, or windy it might be!

Date:

Astronomy

Jun. 23, 2013 Rise Set
Actual Time 6:01 AM CDT 8:41 PM CDT
Civil Twilight 5:30 AM CDT 9:11 PM CDT
Nautical Twilight 4:52 AM CDT 9:49 PM CDT
Astronomical Twilight 4:09 AM CDT 10:32 PM CDT
Moon 8:56 PM CDT (6/23) 6:17 AM CDT (6/23)
Length of Visible Light 15h 41m
Length of Day
14h 39m
Full, 100% of the Moon is Illuminated
Jun 23
Full
Jun 29
Last Quarter
Jul 8
New
Jul 15
First Quarter
Jul 22
Full

Hourly Weather History & Observations

Time (CDT) Temp. Heat Index Dew Point Humidity Pressure Visibility Wind Dir Wind Speed Gust Speed Precip Events Conditions
12:15 AM 77.0 °F - 69.8 °F 78% 30.00 in 10.0 mi SE 3.5 mph - N/A   Clear
12:35 AM 77.0 °F - 69.8 °F 78% 30.00 in 10.0 mi SE 3.5 mph - N/A   Clear
12:55 AM 77.0 °F - 69.8 °F 78% 29.99 in 10.0 mi SE 4.6 mph - N/A   Clear
1:15 AM 77.0 °F - 69.8 °F 78% 29.98 in 10.0 mi SE 6.9 mph - N/A   Clear
1:35 AM 77.0 °F - 69.8 °F 78% 29.98 in 10.0 mi SSE 6.9 mph - N/A   Clear
1:55 AM 77.0 °F - 69.8 °F 78% 29.98 in 10.0 mi SE 8.1 mph - N/A   Clear
2:15 AM 77.0 °F - 69.8 °F 78% 29.97 in 10.0 mi SE 8.1 mph - N/A   Clear
2:35 AM 77.0 °F - 71.6 °F 83% 29.96 in 10.0 mi SE 10.4 mph - N/A   Clear
2:55 AM 77.0 °F - 71.6 °F 83% 29.96 in 10.0 mi SSE 11.5 mph - N/A   Clear
3:15 AM 77.0 °F - 71.6 °F 83% 29.95 in 10.0 mi SSE 10.4 mph - N/A   Clear
3:35 AM 77.0 °F - 71.6 °F 83% 29.95 in 10.0 mi SSE 10.4 mph - N/A   Clear
3:55 AM 77.0 °F - 71.6 °F 83% 29.94 in 10.0 mi SSE 10.4 mph - N/A   Clear
4:15 AM 77.0 °F - 71.6 °F 83% 29.94 in 10.0 mi SSE 10.4 mph - N/A   Clear
4:35 AM 77.0 °F - 71.6 °F 83% 29.95 in 10.0 mi SSE 9.2 mph - N/A   Clear
4:55 AM 77.0 °F - 71.6 °F 83% 29.95 in 10.0 mi SSE 10.4 mph 16.1 mph N/A   Clear
5:15 AM 77.0 °F - 71.6 °F 83% 29.96 in 7.0 mi SSE 9.2 mph - N/A   Clear
5:35 AM 77.0 °F - 71.6 °F 83% 29.96 in 7.0 mi South 8.1 mph - N/A   Clear
5:55 AM 77.0 °F - 71.6 °F 83% 29.96 in 10.0 mi SSE 8.1 mph - N/A   Clear
6:15 AM 77.0 °F - 71.6 °F 83% 29.97 in 7.0 mi SSE 6.9 mph - N/A   Clear
6:35 AM 77.0 °F - 71.6 °F 83% 29.98 in 7.0 mi SSE 8.1 mph - N/A   Clear
6:55 AM 77.0 °F - 71.6 °F 83% 29.98 in 7.0 mi SSE 8.1 mph - N/A   Clear
7:15 AM 78.8 °F - 71.6 °F 78% 29.98 in 7.0 mi SE 8.1 mph - N/A   Clear
7:35 AM 78.8 °F - 71.6 °F 78% 29.99 in 7.0 mi SSE 8.1 mph - N/A   Clear
7:55 AM 78.8 °F - 71.6 °F 78% 29.98 in 5.0 mi SSE 11.5 mph 19.6 mph N/A   Haze
8:15 AM 80.6 °F 84.6 °F 71.6 °F 74% 29.99 in 7.0 mi South 10.4 mph 17.3 mph N/A   Clear
8:35 AM 80.6 °F 84.6 °F 71.6 °F 74% 29.98 in 7.0 mi South 15.0 mph 21.9 mph N/A   Clear
8:55 AM 82.4 °F 87.2 °F 71.6 °F 70% 29.98 in 10.0 mi SSE 15.0 mph 20.7 mph N/A   Clear
9:15 AM 82.4 °F 87.2 °F 71.6 °F 70% 29.98 in 10.0 mi South 12.7 mph 21.9 mph N/A   Clear
9:35 AM 84.2 °F 89.6 °F 71.6 °F 66% 29.98 in 10.0 mi South 17.3 mph 24.2 mph N/A   Clear
9:55 AM 86.0 °F 91.8 °F 71.6 °F 62% 29.98 in 10.0 mi South 17.3 mph 24.2 mph N/A   Clear
10:15 AM 86.0 °F 91.8 °F 71.6 °F 62% 29.98 in 10.0 mi South 17.3 mph 25.3 mph N/A   Clear
10:35 AM 86.0 °F 91.8 °F 71.6 °F 62% 29.98 in 10.0 mi South 19.6 mph 23.0 mph N/A   Clear
10:55 AM 87.8 °F 93.8 °F 71.6 °F 58% 29.98 in 10.0 mi South 15.0 mph 19.6 mph N/A   Clear
11:15 AM 87.8 °F 93.8 °F 71.6 °F 58% 29.98 in 10.0 mi South 12.7 mph 23.0 mph N/A   Clear
11:35 AM 89.6 °F 96.2 °F 71.6 °F 55% 29.98 in 10.0 mi South 13.8 mph 21.9 mph N/A   Clear
11:55 AM 89.6 °F 96.2 °F 71.6 °F 55% 29.98 in 10.0 mi South 12.7 mph 20.7 mph N/A   Clear
12:15 PM 89.6 °F 96.2 °F 71.6 °F 55% 29.99 in 10.0 mi South 13.8 mph 19.6 mph N/A   Clear
12:35 PM 89.6 °F 94.7 °F 69.8 °F 52% 29.99 in 10.0 mi South 17.3 mph 24.2 mph N/A   Clear
12:55 PM 89.6 °F 94.7 °F 69.8 °F 52% 29.99 in 10.0 mi South 17.3 mph 23.0 mph N/A   Clear
1:15 PM 89.6 °F 96.2 °F 71.6 °F 55% 29.99 in 10.0 mi South 16.1 mph - N/A   Clear
1:35 PM 91.4 °F 96.8 °F 69.8 °F 49% 29.99 in 10.0 mi South 11.5 mph 16.1 mph N/A   Scattered Clouds
1:55 PM 91.4 °F 98.4 °F 71.6 °F 52% 29.99 in 10.0 mi South 8.1 mph 17.3 mph N/A   Scattered Clouds
2:15 PM 91.4 °F 98.4 °F 71.6 °F 52% 29.98 in 10.0 mi South 13.8 mph - N/A   Scattered Clouds
2:35 PM 91.4 °F 96.8 °F 69.8 °F 49% 29.98 in 10.0 mi South 15.0 mph 18.4 mph N/A   Clear
2:55 PM 91.4 °F 98.4 °F 71.6 °F 52% 29.97 in 10.0 mi SSE 13.8 mph 17.3 mph N/A   Scattered Clouds
3:15 PM 91.4 °F 96.8 °F 69.8 °F 49% 29.96 in 10.0 mi SSE 15.0 mph 18.4 mph N/A   Clear
3:35 PM 93.2 °F 100.5 °F 71.6 °F 49% 29.96 in 10.0 mi South 15.0 mph 20.7 mph N/A   Clear
3:55 PM 91.4 °F 95.4 °F 68.0 °F 46% 29.95 in 10.0 mi South 15.0 mph 21.9 mph N/A   Clear
4:15 PM 91.4 °F 96.8 °F 69.8 °F 49% 29.94 in 10.0 mi South 11.5 mph 16.1 mph N/A   Clear
4:35 PM 91.4 °F 96.8 °F 69.8 °F 49% 29.93 in 10.0 mi South 15.0 mph - N/A   Clear
4:55 PM 91.4 °F 95.4 °F 68.0 °F 46% 29.92 in 10.0 mi South 16.1 mph 23.0 mph N/A   Clear
5:15 PM 91.4 °F 96.8 °F 69.8 °F 49% 29.90 in 10.0 mi SSE 18.4 mph 25.3 mph N/A   Clear
5:35 PM 91.4 °F 95.4 °F 68.0 °F 46% 29.90 in 10.0 mi South 16.1 mph 24.2 mph N/A   Clear
5:55 PM 91.4 °F 95.4 °F 68.0 °F 46% 29.89 in 10.0 mi SSE 11.5 mph 23.0 mph N/A   Clear
6:15 PM 89.6 °F 93.4 °F 68.0 °F 49% 29.91 in 10.0 mi SSE 13.8 mph - N/A   Clear
6:35 PM 89.6 °F 93.4 °F 68.0 °F 49% 29.91 in 10.0 mi South 15.0 mph 20.7 mph N/A   Clear
6:55 PM 89.6 °F 93.4 °F 68.0 °F 49% 29.91 in 10.0 mi SSE 12.7 mph 16.1 mph N/A   Clear
7:15 PM 87.8 °F 91.4 °F 68.0 °F 52% 29.92 in 10.0 mi SSE 6.9 mph - N/A   Clear
7:35 PM 87.8 °F 91.4 °F 68.0 °F 52% 29.92 in 10.0 mi SSE 6.9 mph - N/A   Clear
7:55 PM 86.0 °F 89.4 °F 68.0 °F 55% 29.92 in 10.0 mi South 8.1 mph - N/A   Clear
8:15 PM 86.0 °F 90.4 °F 69.8 °F 58% 29.93 in 10.0 mi SE 5.8 mph - N/A   Clear
8:35 PM 84.2 °F 88.4 °F 69.8 °F 62% 29.93 in 10.0 mi SSE 9.2 mph - N/A   Clear
8:55 PM 82.4 °F 86.3 °F 69.8 °F 66% 29.93 in 10.0 mi Calm Calm - N/A   Clear
9:15 PM 80.6 °F 83.9 °F 69.8 °F 70% 29.94 in 10.0 mi SSE 4.6 mph - N/A   Clear
9:35 PM 80.6 °F 83.9 °F 69.8 °F 70% 29.95 in 10.0 mi SE 4.6 mph - N/A   Clear
9:55 PM 80.6 °F 83.9 °F 69.8 °F 70% 29.96 in 10.0 mi SSE 4.6 mph - N/A   Clear
10:15 PM 78.8 °F - 69.8 °F 74% 29.97 in 10.0 mi SSE 4.6 mph - N/A   Clear
10:35 PM 80.6 °F 83.2 °F 68.0 °F 65% 29.98 in 10.0 mi SSE 5.8 mph - N/A   Clear
10:55 PM 78.8 °F - 68.0 °F 69% 29.98 in 10.0 mi SSE 6.9 mph - N/A   Clear
11:15 PM 78.8 °F - 68.0 °F 69% 29.99 in 10.0 mi SSE 6.9 mph - N/A   Clear
11:35 PM 78.8 °F - 68.0 °F 69% 29.99 in 10.0 mi South 8.1 mph - N/A   Clear
11:55 PM 78.8 °F - 68.0 °F 69% 29.99 in 10.0 mi SSE 6.9 mph - N/A   Clear